Tracking 19562 objects as of 22-Mar-2019
HD Live streaming from Space Station
objects crossing your sky now

COSMOS 566

Track COSMOS 566 now!
10-day predictions
COSMOS 566 is classified as:


NORAD ID: 6677
Int'l Code: 1973-037C
Perigee: 1,440.3 km
Apogee: 1,489.1 km
Inclination: 74.0 °
Period: 115.0 minutes
Semi major axis: 7835 km
RCS: 0.7136 m2 (medium)
Launch date: June 8, 1973
Source: Commonwealth of Independent States (former USSR) (CIS)
Launch site: PLESETSK MISSILE AND SPACE COMPLEX (PKMTR)
aabbcc
Your satellite tracking list
Your tracking list is empty




NASA's NSSDC Master Catalog

Two Line Element Set (TLE):
1  6677U 73037C   19079.66619244 -.00000005 +00000-0 +68565-4 0  9990
2  6677 074.0186 163.4753 0031114 141.4985 010.1746 12.51659969091445
Source of the keplerian elements: AFSPC